Regional Weather Roundup
Issued by NWS Wakefield, VA

Home | Current Version | Previous Version | Graphics & Text | Print | Product List | Glossary On
Versions: 1 2 3 4 5 6 7 8 9 10 11 12 13 14 15 16 17 18 19 20 21 22 23 24 25 26 27 28 29 30 31 32 33 34 35 36 37 38 39 40 41 42 43 44 45 46 47 48 49 50
000
ASUS41 KAKQ 210815
RWRAKQ

REGIONAL WEATHER ROUNDUP
NATIONAL WEATHER SERVICE WAKEFIELD VA
300 AM EST SUN JAN 21 2018

Note: "fair" indicates few or no clouds below 12,000 feet with no
significant weather and/or obstructions to visibility. * = Denotes
station may not report precipitation (e.g., rain,snow,etc.),
thunder or fog.

VAZ042-051-052>054-056-210900-
NORTHERN VIRGINIA

CITY           SKY/WX    TMP DP  RH WIND       PRES   REMARKS
WASH NATIONAL  FAIR      36  31  82 CALM      30.14R
DULLES         MOCLDY    31  28  89 N3        30.13R
FORT BELVOIR   FAIR      29  25  85 CALM        N/A
QUANTICO       NOT AVBL
FREDERICKSBRG* FAIR      31  30  96 CALM      30.12F
STAFFORD*      FAIR      29  29 100 CALM      30.17S
WARRENTON      FAIR      28  23  84 CALM      30.12R
CULPEPER*      FAIR      29  26  85 CALM      30.13S
MANASSAS*      FAIR      25  22  88 CALM      30.14R
LEESBURG*      MOCLDY    34  32  93 CALM      30.14S
WINCHESTER     FAIR      36  32  87 CALM      30.13S
FRONT ROYAL*   FAIR      45  34  65 E6        30.11R
LURAY*         FAIR      36  32  87 S5        30.12S
$$

VAZ048-049-060>072-079>083-210900-
CENTRAL AND SOUTH CENTRAL VIRGINIA

CITY           SKY/WX    TMP DP  RH WIND       PRES   REMARKS
RICHMOND       FAIR      34  31  88 CALM      30.14R
CHESTERFIELD*  NOT AVBL
PETERSBURG*    FAIR      28  27  93 CALM      30.15R
HANOVER        FAIR      33  31  92 CALM      30.15R
TAPPAHANNOCK*  FAIR      33  32  96 CALM      30.14R
QUINTON*       FAIR      31  30  96 CALM      30.14R
CHARLOTTSVILLE FAIR      46  36  68 S7        30.12R
GORDONSVILLE*  FAIR      31  30  95 SW3       30.13R
ORANGE*        FAIR      32  28  86 CALM      30.12S
LOUISA*        FAIR      34  32  92 S3        30.18R
BUMPASS*       FAIR      40  33  76 W3        30.13R
FARMVILLE*     FAIR     N/A N/A N/A CALM      30.15R
CREWE*         FAIR      43  40  89 NW3       30.15R
FORT PICKETT*  FAIR      39  39  99 W7        30.15R
CHASE CITY*    FAIR      37  37 100 CALM      30.17R
CLARKSVILLE*   FAIR      45  37  76 CALM      30.17R
SOUTH HILL*    FAIR      43  38  84 SW3       30.22R
LAWRENCEVILLE* FAIR      41  36  83 W3        30.15R
EMPORIA*       FAIR      28  28 100 CALM      30.17R
$$

VAZ088>098-210900-
SOUTHEAST VIRGINIA

CITY           SKY/WX    TMP DP  RH WIND       PRES   REMARKS
NORFOLK        FAIR      38  31  76 S8        30.14R
VIRGINIA BEACH FAIR      38  29  70 SW7       30.14R
NORFOLK NAVAL  FAIR      43  32  65 SW5       30.16R
WEST POINT*    FAIR      29  27  92 CALM      30.16R
SALUDA*        FAIR      35  34  95 CALM      30.13R
NEWPORT NEWS   FAIR      40  32  73 W3        30.14S
LANGLEY AFB    FAIR      42  33  72 W5        30.13S
FORT EUSTIS    FAIR      35  30  82 CALM      30.12R
WILLIAMSBURG*  FAIR      34  28  80 CALM      30.16R
HR EXEC AP*    FAIR      31  29  92 SW3       30.16R
FRANKLIN*      FAIR      33  31  92 CALM      30.16S
US460-WAKEFLD  FAIR      32  30  92 CALM      30.15R
$$

VAZ020-022-025-037-045-210900-
WEST CENTRAL AND SOUTHWEST VIRGINIA

CITY           SKY/WX    TMP DP  RH WIND       PRES   REMARKS
STAUNTON*      FAIR      32  30  94 CALM      30.15S
WAYNESBORO*    FAIR      48  41  76 SW12      30.13S
HOT SPRINGS VA CLOUDY    41  41 100 W21G28    30.13S
LYNCHBURG      FAIR      33  31  92 CALM      30.16R
DANVILLE       FAIR      36  34  92 W7        30.19R
SOUTH BOSTON*  FAIR      40  37  88 SW3       30.18R
MARTINSVILLE   FAIR      31  29  93 CALM      30.22R
ROANOKE        FAIR      47  39  74 CALM      30.19R
BLACKSBURG     FAIR      43  38  84 CALM      30.22R
DUBLIN*        FAIR      37  33  88 SW7       30.21R
MARION*        FAIR      37  32  82 W6        30.23S
HILLSVILLE*    FAIR      42  35  74 NW9       30.18S
RICHLANDS*     CLOUDY    44  33  64 SW7       30.21S
WISE*          CLOUDY    46  36  66 SW10      30.21S
ABINGDON*      CLOUDY    36  34  92 CALM      30.22S
$$

MDZ021>025-VAZ099-100-210900-
SOUTHERN MARYLAND AND THE DELMARVA PENINSULA

CITY           SKY/WX    TMP DP  RH WIND       PRES   REMARKS
PATUXENT RIVER NOT AVBL
BAY BRIDGE APT FAIR      32  28  86 CALM      30.13R
LEONARDTOWN    FAIR      32  32 100 W3        30.15R
DOVER          FAIR      35  31  84 CALM      30.12R
GEORGETOWN     FAIR      32  25  75 CALM      30.13R
EASTON         FAIR      32  27  80 CALM      30.16R
CAMBRIDGE      CLEAR     28  25  86 CALM      30.13R
SALISBURY      FAIR      28  25  88 CALM      30.13R
OCEAN CITY     FAIR      31  28  89 NW6       30.13R
WALLOPS ISLAND FAIR      39  33  79 NW6       30.14R
ACCOMACK*      FAIR      36  33  91 CALM      30.13R
$$

NCZ012>017-030>032-210900-
NORTH CENTRAL AND EASTERN NORTH CAROLINA

CITY           SKY/WX    TMP DP  RH WIND       PRES   REMARKS
ROANOKE RAPIDS FAIR      34  32  93 CALM      30.17R
RALEIGH        FAIR      36  31  82 CALM      30.20R
ELIZABETH CITY FAIR      38  34  85 SW7       30.17S
AHOSKIE*       FAIR      35  31  88 CALM      30.17S
EDENTON*       FAIR      46  30  54 SW3       30.18S
CURRITUCK*     FAIR      42  30  62 SW5       30.17R
KILL DEVIL HLS FAIR      42  29  58 CALM      30.16S
MANTEO         FAIR      43  30  59 W7        30.18S
CAPE HATTERAS  FAIR      47  33  58 W8        30.19S
TARBORO*       NOT AVBL
GOLDSBORO      FAIR      41  24  50 CALM      30.17S
WASHINGTON     FAIR      39  26  58 SW3       30.19S
GREENVILLE     FAIR      37  27  65 SW3       30.20S
NEW BERN       FAIR      43  28  55 SW5       30.20S
WILMINGTON     FAIR      38  33  82 CALM      30.21S
$$

VAZ048-210900-
ELSEWHERE

CITY           SKY/WX    TMP DP  RH WIND       PRES   REMARKS
HARRISBURG PA  FAIR      26  24  92 CALM      30.12R
BALTIMORE      FAIR      33  29  85 W3        30.13R
ANNAPOLIS      FAIR      34  31  88 NW3       30.13R
ANDREWS AFB    FAIR      30  27  87 CALM      30.11S
PHILADELPHIA   FAIR      32  27  81 S5        30.13R
HENDERSON NC   FAIR      38  33  82 SW6       30.18R
GREENSBORO     FAIR      39  33  79 NW3       30.17F
ROCKY MOUNT    NOT AVBL
$$

VAZ100-210900-
MARINE

STATION/POSITION TIME  TEMP    WIND        PRES    WAVE   SWELL
                       AIR SEA DIR/SP/G            HT/PER HT/PER
                 (UTC) (F)     (DEG/KT/KT) (MB)    (FT/S) (FT/S)
BRANDYWINE LGT   0742   42     310/  1/  3 1020.4R
CAPE MAY NJ      0742   36 34   CALM  /  1 1019.7R
LEWES DE         0742   45 34  270/  5/  7 1019.8R
15NM E FENWICK I 0750   40 38  250/  4/  6 1020.5R   3/ 6   2/ 6
OCEAN-CITY-INLET 0742   42 37  360/  2/  3 1020.5R
WACHAPREAGUE VA  0742   35 37  190/  4/  4 1020.4R
THOMAS POINT MD  0800   41 33  240/  5/  6   N/A
GOOSES REEF MD   0800   37 33  290/  4/  6 1020.7    1
COVE POINT MD    0742   46     300/  2/  3 1020.7R
SOLOMONS ISLAND  0742   33 34  280/  2/  2 1019.9R
BISHOPS HEAD MD  0742   34 36  140/  4/  4 1020.4R
PINEY POINT MD   0748          290/  2/  3   N/A
POTOMAC MD       0750   36     340/  4/  4 1019.6R
CAMBRIDGE MD     0742   31 33              1020.9R
LEWISETTA VA     0742   35 33  190/  2/  3 1020.1R
RAPPAHANNOCK LGT 0748          180/ 10/ 12 1021.1R
STINGRAY PT      0800   39 34  250/  2/  4 1023.1    0
YORK RVR RNG VA  0742   40     260/  6/  7 1021.2R
YORKTOWN VA      0742   44 36  240/  4/  6 1020.4R
DOMINION TERM VA 0742   44     300/  3/  4 1020.8R
KIPTOPEKE VA     0742      35  220/  2/  4   N/A
CAPE HENRY VA    0742   47     230/ 10/ 13   N/A
WILLOUBY STN VA  0748          250/  5/  6 1020.6R
S CRANEY ISL VA  0742   43     220/  4/  5 1020.6R
CAPE HENRY BUOY  0800      38                N/A     2/ 6
1ST LANDING BUOY 0800   41 35  250/  6/  8 1020.7    1
CAPE CHARLES BUO 0751      39                N/A     2/11
64NM E OF VA BCH 0750   52 55  260/ 16/ 17 1021.0S   3/ 6   2/11
DUCK PIER NC     0742   43 40  230/  9/ 11 1021.0R
44100 DUCK FRF   0745      40                N/A     2/11
44056 DUCK FRF   0800      40                N/A     1/12
OREGON INLET NC  0742   41 40  230/  6/  7 1021.6F
HATTERAS NC      0742   48 50  270/ 12/ 14 1021.9S
DIAMOND SHLS NC  0750   59 68  290/ 16/ 19 1022.6R   5/ 6   2/ 9
CAPE LOOKOUT NC  0800          240/  7/  8 1023.0F
$$



USA.gov is the U.S. government's official web portal to all federal, state and local government web resources and services.